sat.trackr.live / text

‹ back to catalog

ONEWEB-0640

NORAD 55804 · 2023-029J

PAYLOAD ACTIVE UNKNOWN

§ Identity

Operator
Country
UK
Launch date
2023-03-09
Launch site
AFETR
Launch vehicle
Mass (kg)
RCS (m²)

Purposes: comms

External: N2YO · Heavens-Above · Gunter

§ Orbital elements

Epoch: 2026-09-20T00:22:24.881664Z

Period
109.55 min
Inclination
87.8883°
Eccentricity
0.0002571
Mean motion
13.14502062 rev/d
Perigee alt
1,203.8 km
Apogee alt
1,207.7 km
Semi-major
7,583.9 km
B*
6.3143e-4
RAAN
270.8181°
Arg perigee
89.0877°
Mean anomaly
271.0547°
Rev number
17,187

§ Raw data

ONEWEB-06401 55804U 23029J   26263.01556576  .00000247  00000+0  63143-3 0  99942 55804  87.8883 270.8181 0002571  89.0877 271.0547 13.14502062171871

JSON: /api/v1/satellites/55804 · /tle

For live sub-satellite position, see the globe view (requires WebGL).

§ Visibility from observer

Set your observer location to see the next 7 days of passes ≥ 10°. The values pass through the URL so the page stays shareable.

No JS? Fill the form by hand. The geolocation button needs JavaScript.